Weather History for KAEG - February, 2013

Change the Weather History Date:

Wednesday, February 27, 2013

  Actual Average Record
Temperature  
Mean Temperature 28 °F -  
Max Temperature 39 °F - - ()
Min Temperature 17 °F - - ()
Degree Days  
Heating Degree Days 37    
Moisture  
Dew Point -1 °F    
Average Humidity 33    
Maximum Humidity 49    
Minimum Humidity 16    
Precipitation  
Precipitation 0.00 in - - ()
Sea Level Pressure  
Sea Level Pressure 30.18 in    
Wind  
Wind Speed 11 mph (NW)    
Max Wind Speed 20 mph    
Max Gust Speed 25 mph    
Visibility 10 miles    
Events      
T = Trace of Precipitation, MM = Missing Value Source: NWS Daily Summary

Daily Weather History Graph

Daily Weather History Graph

Search for Another Location

Airport or City:

Trip Planner

Search our weather history database for the weather conditions in past years. The results will help you decide how hot, cold, wet, or windy it might be!

Date:

Astronomy

Feb. 27, 2013 Rise Set
Actual Time 6:38 AM MST 6:01 PM MST
Civil Twilight 6:13 AM MST 6:26 PM MST
Nautical Twilight 5:43 AM MST 6:56 PM MST
Astronomical Twilight 5:14 AM MST 7:25 PM MST
Moon 8:17 PM MST (2/27) 7:22 AM MST (2/27)
Length of Visible Light 12h 13m
Length of Day
11h 22m
Waning Gibbous, 96% of the Moon is Illuminated
Feb 27
Waning Gibbous
Mar 4
Last Quarter
Mar 11
New
Mar 19
First Quarter
Mar 27
Full

Hourly Weather History & Observations

Time (MST) Temp. Windchill Dew Point Humidity Pressure Visibility Wind Dir Wind Speed Gust Speed Precip Events Conditions
12:15 AM 24.8 °F 10.7 °F 1.4 °F 36% 30.07 in 10.0 mi NNW 19.6 mph 25.3 mph N/A   Clear
12:35 AM 24.8 °F 12.4 °F 1.4 °F 36% 30.08 in 10.0 mi NNW 15.0 mph - N/A   Clear
12:55 AM 24.8 °F 11.9 °F -0.4 °F 34% 30.09 in 10.0 mi NNW 16.1 mph - N/A   Clear
1:15 AM 23.0 °F 9.6 °F -0.4 °F 36% 30.09 in 10.0 mi NNW 16.1 mph - N/A   Clear
1:55 AM 23.0 °F 11.1 °F 1.4 °F 39% 30.10 in 10.0 mi NNW 12.7 mph - N/A   Clear
2:15 AM 23.0 °F 9.6 °F 1.4 °F 39% 30.10 in 10.0 mi NNW 16.1 mph - N/A   Clear
2:35 AM 23.0 °F 11.1 °F 1.4 °F 39% 30.11 in 10.0 mi NNW 12.7 mph - N/A   Clear
2:55 AM 21.2 °F 8.3 °F 1.4 °F 42% 30.12 in 10.0 mi NNW 13.8 mph - N/A   Clear
3:15 AM 21.2 °F 8.9 °F 1.4 °F 42% 30.12 in 10.0 mi NNW 12.7 mph - N/A   Clear
3:35 AM 21.2 °F 8.3 °F 1.4 °F 42% 30.13 in 10.0 mi NNW 13.8 mph - N/A   Clear
3:55 AM 19.4 °F 6.6 °F 1.4 °F 46% 30.13 in 10.0 mi NNW 12.7 mph - N/A   Clear
4:15 AM 19.4 °F 7.9 °F 1.4 °F 46% 30.15 in 10.0 mi NNW 10.4 mph - N/A   Clear
4:35 AM 19.4 °F 8.6 °F 1.4 °F 46% 30.15 in 10.0 mi NNW 9.2 mph - N/A   Clear
5:50 AM 17.6 °F 6.4 °F 1.4 °F 49% 30.18 in 10.0 mi NNW 9.2 mph - N/A   Clear
6:50 AM 17.6 °F - 1.4 °F 49% 30.20 in 10.0 mi Calm Calm - N/A   Clear
7:50 AM 23.0 °F - 3.2 °F 43% 30.24 in 10.0 mi Calm Calm - N/A   Clear
8:50 AM 26.6 °F - 5.0 °F 40% 30.26 in 10.0 mi Calm Calm - N/A   Clear
9:50 AM 32.0 °F 27.5 °F 5.0 °F 32% 30.27 in 10.0 mi NE 4.6 mph - N/A   Clear
10:50 AM 32.0 °F 26.4 °F 5.0 °F 32% 30.26 in 10.0 mi Variable 5.8 mph - N/A   Clear
11:50 AM 33.8 °F - 3.2 °F 28% 30.26 in 10.0 mi Calm Calm - N/A   Partly Cloudy
12:50 PM 37.4 °F 32.8 °F 3.2 °F 24% 30.23 in 10.0 mi SSW 5.8 mph - N/A   Partly Cloudy
1:49 PM 37.4 °F 33.8 °F 1.4 °F 22% 30.21 in 10.0 mi Variable 4.6 mph - N/A   Clear
2:50 PM 39.2 °F 35.9 °F -2.2 °F 17% 30.19 in 10.0 mi South 4.6 mph - N/A   Clear
3:50 PM 39.2 °F 33.0 °F -4.0 °F 16% 30.19 in 10.0 mi West 9.2 mph - N/A   Clear
4:50 PM 39.2 °F 35.0 °F -2.2 °F 17% 30.18 in 10.0 mi WSW 5.8 mph - N/A   Clear
6:50 PM 32.0 °F - -7.6 °F 18% 30.19 in 10.0 mi Calm Calm - N/A   Clear
7:50 PM 30.2 °F 24.3 °F -7.6 °F 19% 30.22 in 10.0 mi Variable 5.8 mph - N/A   Clear
8:50 PM 24.8 °F 19.1 °F -7.6 °F 24% 30.23 in 10.0 mi WSW 4.6 mph - N/A   Clear
9:35 PM 19.4 °F 10.4 °F -9.4 °F 28% 30.24 in 10.0 mi NW 6.9 mph - N/A   Clear
10:15 PM 23.0 °F 13.9 °F -7.6 °F 26% 30.25 in 10.0 mi NNW 8.1 mph - N/A   Clear
10:35 PM 19.4 °F 8.6 °F -7.6 °F 30% 30.25 in 10.0 mi NW 9.2 mph - N/A   Clear
11:15 PM 26.6 °F 16.8 °F -4.0 °F 26% 30.25 in 10.0 mi NW 10.4 mph - N/A   Clear
11:35 PM 23.0 °F 11.7 °F -5.8 °F 28% 30.25 in 10.0 mi NW 11.5 mph - N/A   Clear
11:55 PM 23.0 °F 12.4 °F -4.0 °F 31% 30.25 in 10.0 mi NW 10.4 mph - N/A   Clear